Location: Champs
(48.8539°N, 2.6040°E)
Time: 06:16:08
(UTC+00:00)

CZ-2C R/B - Pass Details

Date: 26 October 2021
Orbit: 667 x 785 km, 98.2° (Epoch: 04 December)

Event Time Altitude Azimuth Distance (km) Brightness Sun altitude
Rises 04:11:32 0° 9° (N) 3,152 5.9 -22.8°
Reaches altitude 10° 04:13:54 10° 4° (N) 2,207 5.0 -22.5°
Enters shadow 04:18:13 47° 304° (NW) 923 2.6 -21.7°
